This demonstration page uses our WeatherBlox Daily Observations layout. Learn more.

Left ArrowRight Arrow

Hourly Observations for September 20, 2021

Temp ( °F °C ) Dew Point ( °F °C ) Humidity (%) Winds ( mph kmh ) Pressure ( in mb ) Visibility ( mi km ) Precip ( " mm )
12:15 am 00:15 Partly Cloudy 63 17 61 16 94 94 N N/A 30.25 1024 10 16 N/A
12:35 am 00:35 Mostly Cloudy 63 17 61 16 94 94 N N/A 30.25 1024 10 16 N/A
12:55 am 00:55 Partly Cloudy 64 18 61 16 88 88 N N/A 30.24 1024 10 16 N/A
1:15 am 01:15 Partly Cloudy 63 17 61 16 94 94 N N/A 30.25 1024 10 16 N/A
1:35 am 01:35 Partly Cloudy 63 17 61 16 94 94 N N/A 30.25 1024 10 16 N/A
2:15 am 02:15 Mostly Cloudy 63 17 61 16 94 94 N N/A 30.26 1025 10 16 N/A
2:55 am 02:55 Partly Cloudy 61 16 59 15 94 94 N N/A 30.26 1025 10 16 N/A
3:15 am 03:15 Mostly Cloudy 63 17 61 16 94 94 N N/A 30.26 1025 10 16 N/A
3:35 am 03:35 Cloudy 63 17 61 16 94 94 N N/A 30.26 1025 10 16 N/A
3:55 am 03:55 Partly Cloudy 63 17 61 16 94 94 N N/A 30.26 1025 10 16 N/A
4:15 am 04:15 Mostly Cloudy 61 16 61 16 100 100 N N/A 30.26 1025 10 16 N/A
4:35 am 04:35 Cloudy 61 16 61 16 100 100 N N/A 30.26 1025 10 16 N/A
4:55 am 04:55 Cloudy 61 16 61 16 100 100 N N/A 30.26 1025 10 16 N/A
5:15 am 05:15 Cloudy 61 16 61 16 100 100 N N/A 30.26 1025 10 16 N/A
5:35 am 05:35 Cloudy 61 16 61 16 100 100 N N/A 30.26 1025 10 16 N/A
5:55 am 05:55 Cloudy 61 16 61 16 100 100 N N/A 30.27 1025 10 16 N/A
6:15 am 06:15 Cloudy 63 17 61 16 94 94 N N/A 30.27 1025 10 16 N/A
6:35 am 06:35 Cloudy 63 17 61 16 94 94 N N/A 30.27 1025 10 16 N/A
6:55 am 06:55 Cloudy 63 17 61 16 94 94 N N/A 30.28 1025 10 16 N/A
7:15 am 07:15 Cloudy 63 17 61 16 94 94 N N/A 30.28 1025 10 16 N/A
10:15 am 10:15 Cloudy 70 21 64 18 83 83 E 3 6 30.30 1026 10 16 N/A
10:35 am 10:35 Cloudy 72 22 63 17 73 73 ESE 6 9 30.30 1026 10 16 N/A
10:55 am 10:55 Cloudy 72 22 63 17 73 73 E 6 9 30.30 1026 10 16 N/A
11:15 am 11:15 Mostly Cloudy 73 23 61 16 65 65 SE 5 7 30.30 1026 10 16 N/A
11:35 am 11:35 Sunny 73 23 61 16 65 65 ESE 6 9 30.30 1026 10 16 N/A
11:55 am 11:55 Sunny 75 24 61 16 61 61 ESE 9 15 30.30 1026 10 16 N/A
12:15 pm 12:15 Sunny 75 24 59 15 57 57 ESE 9 15 30.30 1026 10 16 N/A
12:35 pm 12:35 Partly Cloudy 77 25 59 15 54 54 SE 9 15 30.28 1026 10 16 N/A
12:55 pm 12:55 Partly Cloudy 77 25 61 16 57 57 SE 7 11 30.28 1026 10 16 N/A
1:15 pm 13:15 Sunny 77 25 61 16 57 57 SE 5 7 30.27 1025 10 16 N/A
1:35 pm 13:35 Mostly Cloudy 79 26 61 16 54 54 SE 7 11 30.27 1025 10 16 N/A
1:55 pm 13:55 Mostly Cloudy 79 26 61 16 54 54 E 6 9 30.27 1025 10 16 N/A
2:15 pm 14:15 Mostly Cloudy 79 26 61 16 54 54 ESE 7 11 30.27 1025 10 16 N/A
2:35 pm 14:35 Cloudy 77 25 61 16 57 57 E 7 11 30.26 1025 10 16 N/A
2:55 pm 14:55 Cloudy 77 25 61 16 57 57 E 6 9 30.26 1025 10 16 N/A
3:15 pm 15:15 Cloudy 77 25 61 16 57 57 ESE 9 15 30.26 1025 10 16 N/A
3:35 pm 15:35 Cloudy 77 25 61 16 57 57 SE 6 9 30.26 1025 10 16 N/A
4:15 pm 16:15 Cloudy 77 25 61 16 57 57 ESE 8 13 30.25 1025 10 16 N/A
4:35 pm 16:35 Cloudy 77 25 63 17 61 61 ESE 6 9 30.25 1025 10 16 N/A
4:55 pm 16:55 Cloudy 77 25 63 17 61 61 ESE 6 9 30.25 1025 10 16 N/A
5:15 pm 17:15 Cloudy 77 25 61 16 57 57 ESE 6 9 30.25 1025 10 16 N/A
5:35 pm 17:35 Cloudy 77 25 61 16 57 57 ESE 6 9 30.25 1025 10 16 N/A
5:55 pm 17:55 Mostly Cloudy 75 24 61 16 61 61 ESE 6 9 30.26 1025 10 16 N/A
6:15 pm 18:15 Partly Cloudy 75 24 61 16 61 61 SE 6 9 30.27 1025 10 16 N/A
6:35 pm 18:35 Sunny 75 24 61 16 61 61 ESE 5 7 30.27 1025 10 16 N/A
6:55 pm 18:55 Sunny 73 23 61 16 65 65 ESE 5 7 30.27 1025 10 16 N/A
7:15 pm 19:15 Partly Cloudy 73 23 61 16 65 65 N N/A 30.28 1025 10 16 N/A
7:35 pm 19:35 Partly Cloudy 73 23 61 16 65 65 SE 3 6 30.28 1025 10 16 N/A
7:55 pm 19:55 Partly Cloudy 72 22 61 16 69 69 ESE 3 6 30.29 1026 10 16 N/A
8:15 pm 20:15 Partly Cloudy 72 22 61 16 69 69 SE 3 6 30.29 1026 10 16 N/A
8:35 pm 20:35 Mostly Cloudy 72 22 63 17 73 73 ESE 3 6 30.30 1026 10 16 N/A
8:55 pm 20:55 Cloudy 72 22 63 17 73 73 ESE 5 7 30.30 1026 10 16 N/A
9:15 pm 21:15 Partly Cloudy 70 21 63 17 78 78 ESE 6 9 30.30 1026 10 16 N/A
9:35 pm 21:35 Clear 68 20 63 17 83 83 ESE 5 7 30.30 1026 10 16 N/A
9:55 pm 21:55 Clear 68 20 61 16 78 78 ESE 5 7 30.30 1026 10 16 N/A
10:15 pm 22:15 Partly Cloudy 68 20 61 16 78 78 SE 7 11 30.31 1026 10 16 N/A
10:35 pm 22:35 Mostly Cloudy 68 20 61 16 78 78 ESE 3 6 30.31 1026 10 16 N/A
10:55 pm 22:55 Partly Cloudy 68 20 61 16 78 78 ESE 6 9 30.31 1026 10 16 N/A
11:15 pm 23:15 Mostly Cloudy 68 20 61 16 78 78 SE 3 6 30.31 1026 10 16 N/A
11:35 pm 23:35 Partly Cloudy 68 20 61 16 78 78 ESE 5 7 30.31 1026 10 16 N/A
11:55 pm 23:55 Partly Cloudy 66 19 61 16 83 83 ESE 3 6 30.31 1027 10 16 N/A

Powered by AerisWeather